Regional Weather Roundup
Issued by NWS

Home | Current Version | Previous Version | Text Only | Print | Product List | Glossary Off
Versions: 1 2 3 4 5 6 7 8 9 10 11 12 13 14 15 16 17 18 19 20 21 22 23 24 25 26 27 28 29 30 31 32 33 34 35 36 37 38 39 40 41 42 43 44 45 46 47 48 49 50

000
ASUS45 KBOI 042310
RWRID

IDAHO REGIONAL WEATHER ROUNDUP
NATIONAL WEATHER SERVICE BOISE ID
500 PM MDT SAT JUL 04 2015

NOTE: "FAIR" INDICATES FEW OR NO CLOUDS BELOW 12000 FEET
WITH NO SIGNIFICANT WEATHER AND/OR OBSTRUCTIONS TO VISIBILITY

IDZ012-014-050000-
SOUTHWEST IDAHO


CITY           SKY/WX    TMP DP  RH WIND       PRES   REMARKS
BOISE          PTSUNNY  100  34  10 N13       29.78F HX  94
CALDWELL       PTSUNNY   99  43  14 NW6       29.76F HX  94
MOUNTAIN HOME  MOSUNNY  101  30   8 N8        29.78F HX  95
$$

IDZ016-017-050000-
SOUTHCENTRAL IDAHO


CITY           SKY/WX    TMP DP  RH WIND       PRES   REMARKS
BURLEY         PTSUNNY   91  37  15 W7        29.86F
JEROME         MOSUNNY   96  35  11 SW7       29.86F HX  91
TWIN FALLS     MOSUNNY   99  38  12 NW7       29.85F HX  94
$$

IDZ019>023-050000-
SOUTHEAST IDAHO


CITY           SKY/WX    TMP DP  RH WIND       PRES   REMARKS
IDAHO FALLS    MOSUNNY   92  38  15 S12       29.90F
POCATELLO      SUNNY     94  37  13 SW14      29.88F
REXBURG        MOSUNNY   91  40  16 S9        29.90F
$$

IDZ006-010-011-018-031-032-050000-
CENTRAL IDAHO MOUNTAINS


CITY           SKY/WX    TMP DP  RH WIND       PRES   REMARKS
MCCALL         PTSUNNY   91  27  10 CALM      29.92F
HAILEY         MOSUNNY   90  43  19 SW10      29.93F
STANLEY          N/A     83  34  17 W9        30.05F
SALMON         MOSUNNY   93  45  18 NE9       29.76F
CHALLIS        MOSUNNY   95  24   8 VRB5G16   29.86F
$$

IDZ002-004-006-007-026-050000-
NORTHERN IDAHO


CITY           SKY/WX    TMP DP  RH WIND       PRES   REMARKS
LEWISTON       MOSUNNY  102  43  13 NW12      29.66F HX  97
LOWELL           N/A    100  50  18 CALM      29.65F HX  97
COEUR D`ALENE  SUNNY     95  48  20 W8G20     29.72F HX  91
MULLAN PASS    SUNNY     78  40  25 NW10G24   30.02F
$$



USA.gov is the U.S. government's official web portal to all federal, state and local government web resources and services.